loading
|
Showing default

EUTE 36D, 59346

Orbit data source: Space-Track

EUTE 36D, 59346 is a payload satellite owned by EutelsatSA (FR) in GEO that was launched on Sat, 30 Mar 2024 UTC via an FALCON 9 launch vehicle from the Air Force Eastern Test Range (AFETR). Payloads include a variety of satellites, spacecraft, and rockets equipped with specific instruments for various scientific and technological missions. These include communications satellites like Starlink; space stations such as the ISS; scientific satellites like the Hubble; Earth observation satellites from companies like Planet Labs, Umbra, and HawkEye 360; GPS; miniature CubeSats for education and research; and military/defense satellites.

Next visibility unknown
Loading greatness...
EUTE 36D details
Identifier
59346, 2024-059A
Orbit
GEO
Last TLE update8 hours ago
Origin
Flag of FREutelsatSA (FR / EUTE)
ManufacturerADST/ADSUK
Mission statusOperational
MissionCommercial Communications
Bus & MotorEUROSTAR NEO, PPS-5000
Mass5,000 kg wet, ~5,000 kg dry
Launch date (UTC)
2024-03-30 (6 months ago)
Launch vehicle
FALCON 9
Launch site
Air Force Eastern Test Range (AFETR)
Object type
Payload
Rocket body
Debris
Radar Cross SectionLarge (>1 m²)

Expand to show TLE details & history

TLE from 8 hours ago
0 EUTE 36D
1 59346U 24059A   24261.59844972  .00000144  00000-0  00000-0 0  9999
2 59346   0.0259 252.3855 0000666  10.8992 346.1744  1.00107859  1755
Epoch: 2024-09-17T14:21Z
Definitive object data (Epoch: 2024-09-17T14:21:46.055Z)
Latitude0.01789°
Longitude36.99307°
Altitude35,829.386 km
Speed3.073 km/s
True Right ascension16h 37m 46s
True Declination0° 01' 04"
Sunlit
Object was in daylight at TLE epoch
Predictive object data (real-time)
Latitude0.01219°
Longitude150.98083°
Altitude35,832.55 km
Speed3.073 km/s
Apparent Right ascension00h 28m 44s
Apparent Declination-5° 01' 41"
Sunlit
Object is in full shadow
Predictive observer data (real-time)
Local Sidereal Time14:45:59
Azimuth50.634° ENE
Elevation-43.416°
Doppler factor1
Orbital elements
Apogee35,836.493 km
Perigee35,830.87 km
Semi-major axis42,211.818 km
Eccentricity0.0000666
Inclination0.0259°
RAAN252.3855°
Arg. of periapsis10.8992°
True anomaly346.17258°
Mean anomaly346.1744°
Eccentric anomaly346.17349°
Mean motion0.25026 °/min
BSTARUnknown
Period1438.5 mins
No data available
Other satellites on launch #59 in the year 2024 (2024-03-30 UTC)

EUTE 36D Visibility forecast

Observer location: 39.9160978°, -105.1181434

EUTE 36D is not visible in the next 10 days
Span
Click to sort rows by Start time (UTC) header in descending order
Start Az.
Max El. time (UTC)
Max El. Az.
Max El.
End time (UTC)
End Az.